ICESAT-2 (43613 NORAD) Tracking and Keplerian Element Data

This shows tracking and keplerian element data for the satellite.

Feedback or suggestion? Click here.




ElementValue
Catalog43613
NameICESAT-2
Epoch Orbit884
Epoch Day316.40285616
Epoch Year2018
RAAN264.313
Inclination92.0013
Eccentricity0.0002853
Argument of Perigee82.5856
Mean Anonmoly277.5718
Mean Motion15.28281116
Decay Rate1.617E-05
L11 43613U 18070A 18316.40285616 .00001617 00000-0 58570-4 0 9998
L22 43613 92.0013 264.3130 0002853 82.5856 277.5718 15.28281116 8847

Live tracking and technical data element details for ICESAT-2 (NORAD 43613). ICESAT-2 can be tracked NOW for your location showing map with azimuth and elevation plus other details from your city location.

Track the satellite on the map from your city or location and see movement details for azimuth, elevation, latitude, longitude, range, height, and movement on the map or in text.







IsCatalogInMostPopularTable: catalog: 43613, numindb: 18
Update: records affected: 1



GetName: 43613 ICESAT-2

Hit Count: updated at: Tue, 13 Nov 2018 07:44:49 GMT